Year,Month,Day,Hour,Minute,Value (Times are PST for temperature in C)
2015,08,06,00,00,14.70
2015,08,06,00,01,14.60
2015,08,06,00,02,14.60
2015,08,06,00,03,14.60
2015,08,06,00,04,14.60
2015,08,06,00,05,14.60
2015,08,06,00,06,14.60
2015,08,06,00,07,14.60
2015,08,06,00,08,14.60
2015,08,06,00,09,14.50
2015,08,06,00,10,14.50
2015,08,06,00,11,14.50
2015,08,06,00,12,14.50
2015,08,06,00,13,14.50
2015,08,06,00,14,14.50
2015,08,06,00,15,14.50
2015,08,06,00,16,14.50
2015,08,06,00,17,14.50
2015,08,06,00,18,14.40
2015,08,06,00,19,14.40
2015,08,06,00,20,14.40
2015,08,06,00,21,14.40
2015,08,06,00,22,14.40
2015,08,06,00,23,14.40
2015,08,06,00,24,14.40
2015,08,06,00,25,14.40
2015,08,06,00,26,14.40
2015,08,06,00,27,14.40
2015,08,06,00,28,14.40
2015,08,06,00,29,14.40
2015,08,06,00,30,14.40
2015,08,06,00,31,14.40
2015,08,06,00,32,14.40
2015,08,06,00,33,14.40
2015,08,06,00,34,14.40
2015,08,06,00,35,14.40
2015,08,06,00,36,14.40
2015,08,06,00,37,14.40
2015,08,06,00,38,14.40
2015,08,06,00,39,14.30
2015,08,06,00,40,14.30
2015,08,06,00,41,14.30
2015,08,06,00,42,14.30
2015,08,06,00,43,14.30
2015,08,06,00,44,14.30
2015,08,06,00,45,14.30
2015,08,06,00,46,14.30
2015,08,06,00,47,14.30
2015,08,06,00,48,14.30
2015,08,06,00,49,14.30
2015,08,06,00,50,14.30
2015,08,06,00,51,14.20
2015,08,06,00,52,14.30
2015,08,06,00,53,14.20
2015,08,06,00,54,14.20
2015,08,06,00,55,14.20
2015,08,06,00,56,14.20
2015,08,06,00,57,14.20
2015,08,06,00,58,14.20
2015,08,06,00,59,14.30
2015,08,06,01,00,14.30
2015,08,06,01,01,14.30
2015,08,06,01,02,14.30
2015,08,06,01,03,14.30
2015,08,06,01,04,14.30
2015,08,06,01,05,14.30
2015,08,06,01,06,14.30
2015,08,06,01,07,14.30
2015,08,06,01,08,14.30
2015,08,06,01,09,14.30
2015,08,06,01,10,14.30
2015,08,06,01,11,14.30
2015,08,06,01,12,14.40
2015,08,06,01,13,14.40
2015,08,06,01,14,14.40
2015,08,06,01,15,14.40
2015,08,06,01,16,14.40
2015,08,06,01,17,14.40
2015,08,06,01,18,14.40
2015,08,06,01,19,14.40
2015,08,06,01,20,14.40
2015,08,06,01,21,14.40
2015,08,06,01,22,14.40
2015,08,06,01,23,14.40
2015,08,06,01,24,14.40
2015,08,06,01,25,14.50
2015,08,06,01,26,14.50
2015,08,06,01,27,14.50
2015,08,06,01,28,14.50
2015,08,06,01,29,14.40
2015,08,06,01,30,14.40
2015,08,06,01,31,14.40
2015,08,06,01,32,14.50
2015,08,06,01,33,14.50
2015,08,06,01,34,14.50
2015,08,06,01,35,14.50
2015,08,06,01,36,14.50
2015,08,06,01,37,14.50
2015,08,06,01,38,14.60
2015,08,06,01,39,14.60
2015,08,06,01,40,14.60
2015,08,06,01,41,14.60
2015,08,06,01,42,14.60
2015,08,06,01,43,14.60
2015,08,06,01,44,14.60
2015,08,06,01,45,14.60
2015,08,06,01,46,14.60
2015,08,06,01,47,14.60
2015,08,06,01,48,14.60
2015,08,06,01,49,14.60
2015,08,06,01,50,14.60
2015,08,06,01,51,14.60
2015,08,06,01,52,14.60
2015,08,06,01,53,14.50
2015,08,06,01,54,14.50
2015,08,06,01,55,14.50
2015,08,06,01,56,14.50
2015,08,06,01,57,14.50
2015,08,06,01,58,14.50
2015,08,06,01,59,14.50
2015,08,06,02,00,14.50
2015,08,06,02,01,14.40
2015,08,06,02,02,14.40
2015,08,06,02,03,14.40
2015,08,06,02,04,14.40
2015,08,06,02,05,14.40
2015,08,06,02,06,14.30
2015,08,06,02,07,14.30
2015,08,06,02,08,14.30
2015,08,06,02,09,14.30
2015,08,06,02,10,14.30
2015,08,06,02,11,14.30
2015,08,06,02,12,14.30
2015,08,06,02,13,14.30
2015,08,06,02,14,14.30
2015,08,06,02,15,14.30
2015,08,06,02,16,14.30
2015,08,06,02,17,14.30
2015,08,06,02,18,14.30
2015,08,06,02,19,14.30
2015,08,06,02,20,14.30
2015,08,06,02,21,14.30
2015,08,06,02,22,14.30
2015,08,06,02,23,14.30
2015,08,06,02,24,14.30
2015,08,06,02,25,14.30
2015,08,06,02,26,14.30
2015,08,06,02,27,14.20
2015,08,06,02,28,14.20
2015,08,06,02,29,14.20
2015,08,06,02,30,14.20
2015,08,06,02,31,14.20
2015,08,06,02,32,14.20
2015,08,06,02,33,14.20
2015,08,06,02,34,14.20
2015,08,06,02,35,14.20
2015,08,06,02,36,14.20
2015,08,06,02,37,14.20
2015,08,06,02,38,14.20
2015,08,06,02,39,14.20
2015,08,06,02,40,14.20
2015,08,06,02,41,14.10
2015,08,06,02,42,14.10
2015,08,06,02,43,14.10
2015,08,06,02,44,14.10
2015,08,06,02,45,14.10
2015,08,06,02,46,14.10
2015,08,06,02,47,14.00
2015,08,06,02,48,14.00
2015,08,06,02,49,14.00
2015,08,06,02,50,14.00
2015,08,06,02,51,14.00
2015,08,06,02,52,14.00
2015,08,06,02,53,14.00
2015,08,06,02,54,13.90
2015,08,06,02,55,13.90
2015,08,06,02,56,13.90
2015,08,06,02,57,13.90
2015,08,06,02,58,13.90
2015,08,06,02,59,13.90
2015,08,06,03,00,13.80
2015,08,06,03,01,13.80
2015,08,06,03,02,13.80
2015,08,06,03,03,13.80
2015,08,06,03,04,13.70
2015,08,06,03,05,13.70
2015,08,06,03,06,13.70
2015,08,06,03,07,13.70
2015,08,06,03,08,13.70
2015,08,06,03,09,13.70
2015,08,06,03,10,13.70
2015,08,06,03,11,13.70
2015,08,06,03,12,13.60
2015,08,06,03,13,13.60
2015,08,06,03,14,13.60
2015,08,06,03,15,13.60
2015,08,06,03,16,13.60
2015,08,06,03,17,13.60
2015,08,06,03,18,13.60
2015,08,06,03,19,13.60
2015,08,06,03,20,13.60
2015,08,06,03,21,13.60
2015,08,06,03,22,13.60
2015,08,06,03,23,13.50
2015,08,06,03,24,13.50
2015,08,06,03,25,13.50
2015,08,06,03,26,13.50
2015,08,06,03,27,13.40
2015,08,06,03,28,13.40
2015,08,06,03,29,13.40
2015,08,06,03,30,13.40
2015,08,06,03,31,13.50
2015,08,06,03,32,13.50
2015,08,06,03,33,13.50
2015,08,06,03,34,13.50
2015,08,06,03,35,13.50
2015,08,06,03,36,13.50
2015,08,06,03,37,13.40
2015,08,06,03,38,13.40
2015,08,06,03,39,13.40
2015,08,06,03,40,13.40
2015,08,06,03,41,13.30
2015,08,06,03,42,13.30
2015,08,06,03,43,13.30
2015,08,06,03,44,13.30
2015,08,06,03,45,13.20
2015,08,06,03,46,13.20
2015,08,06,03,47,13.10
2015,08,06,03,48,13.10
2015,08,06,03,49,13.10
2015,08,06,03,50,13.00
2015,08,06,03,51,13.00
2015,08,06,03,52,12.90
2015,08,06,03,53,12.90
2015,08,06,03,54,12.90
2015,08,06,03,55,12.80
2015,08,06,03,56,12.90
2015,08,06,03,57,12.90
2015,08,06,03,58,12.90
2015,08,06,03,59,12.90
2015,08,06,04,00,12.90
2015,08,06,04,01,12.90
2015,08,06,04,02,12.90
2015,08,06,04,03,12.90
2015,08,06,04,04,12.90
2015,08,06,04,05,12.90
2015,08,06,04,06,12.80
2015,08,06,04,07,12.80
2015,08,06,04,08,12.80
2015,08,06,04,09,12.80
2015,08,06,04,10,12.80
2015,08,06,04,11,12.70
2015,08,06,04,12,12.70
2015,08,06,04,13,12.60
2015,08,06,04,14,12.60
2015,08,06,04,15,12.60
2015,08,06,04,16,12.50
2015,08,06,04,17,12.50
2015,08,06,04,18,12.40
2015,08,06,04,19,12.40
2015,08,06,04,20,12.40
2015,08,06,04,21,12.30
2015,08,06,04,22,12.30
2015,08,06,04,23,12.30
2015,08,06,04,24,12.30
2015,08,06,04,25,12.30
2015,08,06,04,26,12.30
2015,08,06,04,27,12.30
2015,08,06,04,28,12.30
2015,08,06,04,29,12.20
2015,08,06,04,30,12.20
2015,08,06,04,31,12.20
2015,08,06,04,32,12.20
2015,08,06,04,33,12.10
2015,08,06,04,34,12.20
2015,08,06,04,35,12.20
2015,08,06,04,36,12.20
2015,08,06,04,37,12.20
2015,08,06,04,38,12.20
2015,08,06,04,39,12.20
2015,08,06,04,40,12.10
2015,08,06,04,41,12.10
2015,08,06,04,42,12.10
2015,08,06,04,43,12.10
2015,08,06,04,44,12.10
2015,08,06,04,45,12.00
2015,08,06,04,46,12.00
2015,08,06,04,47,12.00
2015,08,06,04,48,11.90
2015,08,06,04,49,11.90
2015,08,06,04,50,11.90
2015,08,06,04,51,11.80
2015,08,06,04,52,11.80
2015,08,06,04,53,11.80
2015,08,06,04,54,11.80
2015,08,06,04,55,11.80
2015,08,06,04,56,11.80
2015,08,06,04,57,11.80
2015,08,06,04,58,11.80
2015,08,06,04,59,11.80
2015,08,06,05,00,11.80
2015,08,06,05,01,11.80
2015,08,06,05,02,11.80
2015,08,06,05,03,11.80
2015,08,06,05,04,11.80
2015,08,06,05,05,11.80
2015,08,06,05,06,11.80
2015,08,06,05,07,11.70
2015,08,06,05,08,11.70
2015,08,06,05,09,11.60
2015,08,06,05,10,11.60
2015,08,06,05,11,11.60
2015,08,06,05,12,11.60
2015,08,06,05,13,11.60
2015,08,06,05,14,11.50
2015,08,06,05,15,11.40
2015,08,06,05,16,11.40
2015,08,06,05,17,11.40
2015,08,06,05,18,11.40
2015,08,06,05,19,11.40
2015,08,06,05,20,11.30
2015,08,06,05,21,11.40
2015,08,06,05,22,11.40
2015,08,06,05,23,11.40
2015,08,06,05,24,11.40
2015,08,06,05,25,11.40
2015,08,06,05,26,11.40
2015,08,06,05,27,11.40
2015,08,06,05,28,11.50
2015,08,06,05,29,11.60
2015,08,06,05,30,11.60
2015,08,06,05,31,11.60
2015,08,06,05,32,11.50
2015,08,06,05,33,11.40
2015,08,06,05,34,11.40
2015,08,06,05,35,11.40
2015,08,06,05,36,11.40
2015,08,06,05,37,11.40
2015,08,06,05,38,11.40
2015,08,06,05,39,11.40
2015,08,06,05,40,11.40
2015,08,06,05,41,11.40
2015,08,06,05,42,11.40
2015,08,06,05,43,11.40
2015,08,06,05,44,11.40
2015,08,06,05,45,11.40
2015,08,06,05,46,11.40
2015,08,06,05,47,11.40
2015,08,06,05,48,11.30
2015,08,06,05,49,11.30
2015,08,06,05,50,11.30
2015,08,06,05,51,11.30
2015,08,06,05,52,11.30
2015,08,06,05,53,11.30
2015,08,06,05,54,11.30
2015,08,06,05,55,11.30
2015,08,06,05,56,11.30
2015,08,06,05,57,11.30
2015,08,06,05,58,11.20
2015,08,06,05,59,11.20
2015,08,06,06,00,11.20
2015,08,06,06,01,11.20
2015,08,06,06,02,11.20
2015,08,06,06,03,11.20
2015,08,06,06,04,11.20
2015,08,06,06,05,11.20
2015,08,06,06,06,11.10
2015,08,06,06,07,11.20
2015,08,06,06,08,11.20
2015,08,06,06,09,11.20
2015,08,06,06,10,11.20
2015,08,06,06,11,11.20
2015,08,06,06,12,11.30
2015,08,06,06,13,11.30
2015,08,06,06,14,11.30
2015,08,06,06,15,11.30
2015,08,06,06,16,11.30
2015,08,06,06,17,11.30
2015,08,06,06,18,11.30
2015,08,06,06,19,11.30
2015,08,06,06,20,11.30
2015,08,06,06,21,11.30
2015,08,06,06,22,11.30
2015,08,06,06,23,11.30
2015,08,06,06,24,11.40
2015,08,06,06,25,11.30
2015,08,06,06,26,11.30
2015,08,06,06,27,11.30
2015,08,06,06,28,11.30
2015,08,06,06,29,11.30
2015,08,06,06,30,11.30
2015,08,06,06,31,11.30
2015,08,06,06,32,11.30
2015,08,06,06,33,11.30
2015,08,06,06,34,11.20
2015,08,06,06,35,11.20
2015,08,06,06,36,11.20
2015,08,06,06,37,11.20
2015,08,06,06,38,11.20
2015,08,06,06,39,11.20
2015,08,06,06,40,11.20
2015,08,06,06,41,11.20
2015,08,06,06,42,11.30
2015,08,06,06,43,11.30
2015,08,06,06,44,11.30
2015,08,06,06,45,11.30
2015,08,06,06,46,11.30
2015,08,06,06,47,11.30
2015,08,06,06,48,11.30
2015,08,06,06,49,11.30
2015,08,06,06,50,11.30
2015,08,06,06,51,11.30
2015,08,06,06,52,11.30
2015,08,06,06,53,11.30
2015,08,06,06,54,11.30
2015,08,06,06,55,11.30
2015,08,06,06,56,11.30
2015,08,06,06,57,11.30
2015,08,06,06,58,11.30
2015,08,06,06,59,11.30
2015,08,06,07,00,11.30
2015,08,06,07,01,11.30
2015,08,06,07,02,11.30
2015,08,06,07,03,11.30
2015,08,06,07,04,11.30
2015,08,06,07,05,11.30
2015,08,06,07,06,11.40
2015,08,06,07,07,11.40
2015,08,06,07,08,11.40
2015,08,06,07,09,11.40
2015,08,06,07,10,11.40
2015,08,06,07,11,11.40
2015,08,06,07,12,11.40
2015,08,06,07,13,11.40
2015,08,06,07,14,11.50
2015,08,06,07,15,11.60
2015,08,06,07,16,11.60
2015,08,06,07,17,11.60
2015,08,06,07,18,11.60
2015,08,06,07,19,11.60
2015,08,06,07,20,11.60
2015,08,06,07,21,11.60
2015,08,06,07,22,11.60
2015,08,06,07,23,11.60
2015,08,06,07,24,11.60
2015,08,06,07,25,11.60
2015,08,06,07,26,11.60
2015,08,06,07,27,11.50
2015,08,06,07,28,11.40
2015,08,06,07,29,11.40
2015,08,06,07,30,11.40
2015,08,06,07,31,11.40
2015,08,06,07,32,11.40
2015,08,06,07,33,11.50
2015,08,06,07,34,11.60
2015,08,06,07,35,11.60
2015,08,06,07,36,11.60
2015,08,06,07,37,11.60
2015,08,06,07,38,11.60
2015,08,06,07,39,11.60
2015,08,06,07,40,11.70
2015,08,06,07,41,11.70
2015,08,06,07,42,11.80
2015,08,06,07,43,11.80
2015,08,06,07,44,11.80
2015,08,06,07,45,11.80
2015,08,06,07,46,11.90
2015,08,06,07,47,12.00
2015,08,06,07,48,12.00
2015,08,06,07,49,12.10
2015,08,06,07,50,12.20
2015,08,06,07,51,12.20
2015,08,06,07,52,12.30
2015,08,06,07,53,12.30
2015,08,06,07,54,12.40
2015,08,06,07,55,12.50
2015,08,06,07,56,12.50
2015,08,06,07,57,12.60
2015,08,06,07,58,12.70
2015,08,06,07,59,12.80
2015,08,06,08,00,12.90
2015,08,06,08,01,13.00
2015,08,06,08,02,13.10
2015,08,06,08,03,13.10
2015,08,06,08,04,13.20
2015,08,06,08,05,13.20
2015,08,06,08,06,13.30
2015,08,06,08,07,13.30
2015,08,06,08,08,13.40
2015,08,06,08,09,13.50
2015,08,06,08,10,13.50
2015,08,06,08,11,13.50
2015,08,06,08,12,13.60
2015,08,06,08,13,13.70
2015,08,06,08,14,13.70
2015,08,06,08,15,13.70
2015,08,06,08,16,13.70
2015,08,06,08,17,13.80
2015,08,06,08,18,13.80
2015,08,06,08,19,13.90
2015,08,06,08,20,13.90
2015,08,06,08,21,13.90
2015,08,06,08,22,14.00
2015,08,06,08,23,14.00
2015,08,06,08,24,14.10
2015,08,06,08,25,14.10
2015,08,06,08,26,14.20
2015,08,06,08,27,14.20
2015,08,06,08,28,14.20
2015,08,06,08,29,14.30
2015,08,06,08,30,14.40
2015,08,06,08,31,14.40
2015,08,06,08,32,14.50
2015,08,06,08,33,14.50
2015,08,06,08,34,14.60
2015,08,06,08,35,14.60
2015,08,06,08,36,14.70
2015,08,06,08,37,14.70
2015,08,06,08,38,14.80
2015,08,06,08,39,14.80
2015,08,06,08,40,14.90
2015,08,06,08,41,15.00
2015,08,06,08,42,15.10
2015,08,06,08,43,15.20
2015,08,06,08,44,15.20
2015,08,06,08,45,15.30
2015,08,06,08,46,15.30
2015,08,06,08,47,15.40
2015,08,06,08,48,15.50
2015,08,06,08,49,15.60
2015,08,06,08,50,15.60
2015,08,06,08,51,15.70
2015,08,06,08,52,15.80
2015,08,06,08,53,15.80
2015,08,06,08,54,15.80
2015,08,06,08,55,15.80
2015,08,06,08,56,15.90
2015,08,06,08,57,15.90
2015,08,06,08,58,16.00
2015,08,06,08,59,16.10
2015,08,06,09,00,16.20
2015,08,06,09,01,16.30
2015,08,06,09,02,16.40
2015,08,06,09,03,16.50
2015,08,06,09,04,16.60
2015,08,06,09,05,16.70
2015,08,06,09,06,16.80
2015,08,06,09,07,16.90
2015,08,06,09,08,17.00
2015,08,06,09,09,17.20
2015,08,06,09,10,17.30
2015,08,06,09,11,17.30
2015,08,06,09,12,17.40
2015,08,06,09,13,17.50
2015,08,06,09,14,17.60
2015,08,06,09,15,17.60
2015,08,06,09,16,17.70
2015,08,06,09,17,17.80
2015,08,06,09,18,17.80
2015,08,06,09,19,17.90
2015,08,06,09,20,17.90
2015,08,06,09,21,18.00
2015,08,06,09,22,18.10
2015,08,06,09,23,18.20
2015,08,06,09,24,18.20
2015,08,06,09,25,18.30
2015,08,06,09,26,18.40
2015,08,06,09,27,18.40
2015,08,06,09,28,18.40
2015,08,06,09,29,18.40
2015,08,06,09,30,18.40
2015,08,06,09,31,18.30
2015,08,06,09,32,18.30
2015,08,06,09,33,18.40
2015,08,06,09,34,18.50
2015,08,06,09,35,18.60
2015,08,06,09,36,18.60
2015,08,06,09,37,18.60
2015,08,06,09,38,18.70
2015,08,06,09,39,18.80
2015,08,06,09,40,18.90
2015,08,06,09,41,19.10
2015,08,06,09,42,19.10
2015,08,06,09,43,19.20
2015,08,06,09,44,19.30
2015,08,06,09,45,19.40
2015,08,06,09,46,19.50
2015,08,06,09,47,19.50
2015,08,06,09,48,19.50
2015,08,06,09,49,19.50
2015,08,06,09,50,19.60
2015,08,06,09,51,19.70
2015,08,06,09,52,19.70
2015,08,06,09,53,19.60
2015,08,06,09,54,19.50
2015,08,06,09,55,19.50
2015,08,06,09,56,19.50
2015,08,06,09,57,19.50
2015,08,06,09,58,19.30
2015,08,06,09,59,19.20
2015,08,06,10,00,19.10
2015,08,06,10,01,19.10
2015,08,06,10,02,19.10
2015,08,06,10,03,19.10
2015,08,06,10,04,19.10
2015,08,06,10,05,18.90
2015,08,06,10,06,18.90
2015,08,06,10,07,18.90
2015,08,06,10,08,18.90
2015,08,06,10,09,18.90
2015,08,06,10,10,18.90
2015,08,06,10,11,18.90
2015,08,06,10,12,18.90
2015,08,06,10,13,19.00
2015,08,06,10,14,19.10
2015,08,06,10,15,19.10
2015,08,06,10,16,19.30
2015,08,06,10,17,19.40
2015,08,06,10,18,19.60
2015,08,06,10,19,19.60
2015,08,06,10,20,19.70
2015,08,06,10,21,19.60
2015,08,06,10,22,19.50
2015,08,06,10,23,19.50
2015,08,06,10,24,19.50
2015,08,06,10,25,19.60
2015,08,06,10,26,19.70
2015,08,06,10,27,19.70
2015,08,06,10,28,19.80
2015,08,06,10,29,19.80
2015,08,06,10,30,19.90
2015,08,06,10,31,20.00
2015,08,06,10,32,20.20
2015,08,06,10,33,20.20
2015,08,06,10,34,20.20
2015,08,06,10,35,20.20
2015,08,06,10,36,20.20
2015,08,06,10,37,20.20
2015,08,06,10,38,20.10
2015,08,06,10,39,19.90
2015,08,06,10,40,19.80
2015,08,06,10,41,19.80
2015,08,06,10,42,19.80
2015,08,06,10,43,19.80
2015,08,06,10,44,19.80
2015,08,06,10,45,19.80
2015,08,06,10,46,19.80
2015,08,06,10,47,19.60
2015,08,06,10,48,19.60
2015,08,06,10,49,19.60
2015,08,06,10,50,19.60
2015,08,06,10,51,19.70
2015,08,06,10,52,19.80
2015,08,06,10,53,19.80
2015,08,06,10,54,19.90
2015,08,06,10,55,20.10
2015,08,06,10,56,20.20
2015,08,06,10,57,20.30
2015,08,06,10,58,20.30
2015,08,06,10,59,20.30
2015,08,06,11,00,20.30
2015,08,06,11,01,20.30
2015,08,06,11,02,20.30
2015,08,06,11,03,20.20
2015,08,06,11,04,20.10
2015,08,06,11,05,19.90
2015,08,06,11,06,19.90
2015,08,06,11,07,20.00
2015,08,06,11,08,20.10
2015,08,06,11,09,20.20
2015,08,06,11,10,20.20
2015,08,06,11,11,20.40
2015,08,06,11,12,20.50
2015,08,06,11,13,20.60
2015,08,06,11,14,20.80
2015,08,06,11,15,20.80
2015,08,06,11,16,20.80
2015,08,06,11,17,20.80
2015,08,06,11,18,20.80
2015,08,06,11,19,20.90
2015,08,06,11,20,20.90
2015,08,06,11,21,20.80
2015,08,06,11,22,20.90
2015,08,06,11,23,20.90
2015,08,06,11,24,20.80
2015,08,06,11,25,20.80
2015,08,06,11,26,20.70
2015,08,06,11,27,20.60
2015,08,06,11,28,20.50
2015,08,06,11,29,20.50
2015,08,06,11,30,20.60
2015,08,06,11,31,20.60
2015,08,06,11,32,20.70
2015,08,06,11,33,20.70
2015,08,06,11,34,20.80
2015,08,06,11,35,20.70
2015,08,06,11,36,20.60
2015,08,06,11,37,20.50
2015,08,06,11,38,20.40
2015,08,06,11,39,20.30
2015,08,06,11,40,20.20
2015,08,06,11,41,20.20
2015,08,06,11,42,20.30
2015,08,06,11,43,20.30
2015,08,06,11,44,20.40
2015,08,06,11,45,20.40
2015,08,06,11,46,20.50
2015,08,06,11,47,20.60
2015,08,06,11,48,20.70
2015,08,06,11,49,20.70
2015,08,06,11,50,20.60
2015,08,06,11,51,20.70
2015,08,06,11,52,20.70
2015,08,06,11,53,20.80
2015,08,06,11,54,20.80
2015,08,06,11,55,20.70
2015,08,06,11,56,20.60
2015,08,06,11,57,20.50
2015,08,06,11,58,20.40
2015,08,06,11,59,20.40
2015,08,06,12,00,20.40
2015,08,06,12,01,20.40
2015,08,06,12,02,20.40
2015,08,06,12,03,20.40
2015,08,06,12,04,20.30
2015,08,06,12,05,20.20
2015,08,06,12,06,20.20
2015,08,06,12,07,20.10
2015,08,06,12,08,20.00
2015,08,06,12,09,19.90
2015,08,06,12,10,20.00
2015,08,06,12,11,20.00
2015,08,06,12,12,19.90
2015,08,06,12,13,19.90
2015,08,06,12,14,19.90
2015,08,06,12,15,20.00
2015,08,06,12,16,20.10
2015,08,06,12,17,20.20
2015,08,06,12,18,20.20
2015,08,06,12,19,20.20
2015,08,06,12,20,20.20
2015,08,06,12,21,20.20
2015,08,06,12,22,20.10
2015,08,06,12,23,20.00
2015,08,06,12,24,20.10
2015,08,06,12,25,20.10
2015,08,06,12,26,20.00
2015,08,06,12,27,20.00
2015,08,06,12,28,19.90
2015,08,06,12,29,19.90
2015,08,06,12,30,19.90
2015,08,06,12,31,19.80
2015,08,06,12,32,19.80
2015,08,06,12,33,20.00
2015,08,06,12,34,20.20
2015,08,06,12,35,20.30
2015,08,06,12,36,20.50
2015,08,06,12,37,20.50
2015,08,06,12,38,20.70
2015,08,06,12,39,20.80
2015,08,06,12,40,20.80
2015,08,06,12,41,20.80
2015,08,06,12,42,20.80
2015,08,06,12,43,20.80
2015,08,06,12,44,20.80
2015,08,06,12,45,20.70
2015,08,06,12,46,20.70
2015,08,06,12,47,20.80
2015,08,06,12,48,20.90
2015,08,06,12,49,21.10
2015,08,06,12,50,21.20
2015,08,06,12,51,21.30
2015,08,06,12,52,21.30
2015,08,06,12,53,21.30
2015,08,06,12,54,21.30
2015,08,06,12,55,21.30
2015,08,06,12,56,21.30
2015,08,06,12,57,21.30
2015,08,06,12,58,21.30
2015,08,06,12,59,21.30
2015,08,06,13,00,21.30
2015,08,06,13,01,21.30
2015,08,06,13,02,21.10
2015,08,06,13,03,21.00
2015,08,06,13,04,20.90
2015,08,06,13,05,21.00
2015,08,06,13,06,21.00
2015,08,06,13,07,21.10
2015,08,06,13,08,21.10
2015,08,06,13,09,21.10
2015,08,06,13,10,21.20
2015,08,06,13,11,21.20
2015,08,06,13,12,21.20
2015,08,06,13,13,21.30
2015,08,06,13,14,21.40
2015,08,06,13,15,21.50
2015,08,06,13,16,21.60
2015,08,06,13,17,21.60
2015,08,06,13,18,21.60
2015,08,06,13,19,21.70
2015,08,06,13,20,21.70
2015,08,06,13,21,21.80
2015,08,06,13,22,21.70
2015,08,06,13,23,21.60
2015,08,06,13,24,21.60
2015,08,06,13,25,21.60
2015,08,06,13,26,21.50
2015,08,06,13,27,21.40
2015,08,06,13,28,21.40
2015,08,06,13,29,21.40
2015,08,06,13,30,21.50
2015,08,06,13,31,21.50
2015,08,06,13,32,21.40
2015,08,06,13,33,21.30
2015,08,06,13,34,21.30
2015,08,06,13,35,21.20
2015,08,06,13,36,21.10
2015,08,06,13,37,21.10
2015,08,06,13,38,21.10
2015,08,06,13,39,21.00
2015,08,06,13,40,20.90
2015,08,06,13,41,20.90
2015,08,06,13,42,20.90
2015,08,06,13,43,21.00
2015,08,06,13,44,21.10
2015,08,06,13,45,21.30
2015,08,06,13,46,21.30
2015,08,06,13,47,21.30
2015,08,06,13,48,21.20
2015,08,06,13,49,21.00
2015,08,06,13,50,21.00
2015,08,06,13,51,21.00
2015,08,06,13,52,21.10
2015,08,06,13,53,21.20
2015,08,06,13,54,21.20
2015,08,06,13,55,21.20
2015,08,06,13,56,21.20
2015,08,06,13,57,21.20
2015,08,06,13,58,21.30
2015,08,06,13,59,21.30
2015,08,06,14,00,21.40
2015,08,06,14,01,21.60
2015,08,06,14,02,21.70
2015,08,06,14,03,21.70
2015,08,06,14,04,21.60
2015,08,06,14,05,21.70
2015,08,06,14,06,21.80
2015,08,06,14,07,21.80
2015,08,06,14,08,21.70
2015,08,06,14,09,21.70
2015,08,06,14,10,21.70
2015,08,06,14,11,21.80
2015,08,06,14,12,21.80
2015,08,06,14,13,21.80
2015,08,06,14,14,21.70
2015,08,06,14,15,21.60
2015,08,06,14,16,21.50
2015,08,06,14,17,21.40
2015,08,06,14,18,21.40
2015,08,06,14,19,21.40
2015,08,06,14,20,21.50
2015,08,06,14,21,21.60
2015,08,06,14,22,21.50
2015,08,06,14,23,21.40
2015,08,06,14,24,21.30
2015,08,06,14,25,21.30
2015,08,06,14,26,21.30
2015,08,06,14,27,21.30
2015,08,06,14,28,21.20
2015,08,06,14,29,21.10
2015,08,06,14,30,21.10
2015,08,06,14,31,21.20
2015,08,06,14,32,21.30
2015,08,06,14,33,21.20
2015,08,06,14,34,21.20
2015,08,06,14,35,21.30
2015,08,06,14,36,21.30
2015,08,06,14,37,21.30
2015,08,06,14,38,21.30
2015,08,06,14,39,21.20
2015,08,06,14,40,21.10
2015,08,06,14,41,21.10
2015,08,06,14,42,21.20
2015,08,06,14,43,21.30
2015,08,06,14,44,21.30
2015,08,06,14,45,21.30
2015,08,06,14,46,21.40
2015,08,06,14,47,21.40
2015,08,06,14,48,21.40
2015,08,06,14,49,21.60
2015,08,06,14,50,21.60
2015,08,06,14,51,21.70
2015,08,06,14,52,21.70
2015,08,06,14,53,21.60
2015,08,06,14,54,21.60
2015,08,06,14,55,21.70
2015,08,06,14,56,21.70
2015,08,06,14,57,21.60
2015,08,06,14,58,21.60
2015,08,06,14,59,21.60
2015,08,06,15,00,21.60
2015,08,06,15,01,21.60
2015,08,06,15,02,21.50
2015,08,06,15,03,21.40
2015,08,06,15,04,21.60
2015,08,06,15,05,21.60
2015,08,06,15,06,21.60
2015,08,06,15,07,21.60
2015,08,06,15,08,21.70
2015,08,06,15,09,21.80
2015,08,06,15,10,22.00
2015,08,06,15,11,22.10
2015,08,06,15,12,22.20
2015,08,06,15,13,22.00
2015,08,06,15,14,22.00
2015,08,06,15,15,22.10
2015,08,06,15,16,22.10
2015,08,06,15,17,22.00
2015,08,06,15,18,22.00
2015,08,06,15,19,22.00
2015,08,06,15,20,22.10
2015,08,06,15,21,22.30
2015,08,06,15,22,22.30
2015,08,06,15,23,22.20
2015,08,06,15,24,22.20
2015,08,06,15,25,22.30
2015,08,06,15,26,22.30
2015,08,06,15,27,22.20
2015,08,06,15,28,22.20
2015,08,06,15,29,22.10
2015,08,06,15,30,22.00
2015,08,06,15,31,22.00
2015,08,06,15,32,22.00
2015,08,06,15,33,21.90
2015,08,06,15,34,21.80
2015,08,06,15,35,21.80
2015,08,06,15,36,21.80
2015,08,06,15,37,21.80
2015,08,06,15,38,21.80
2015,08,06,15,39,21.80
2015,08,06,15,40,21.80
2015,08,06,15,41,21.80
2015,08,06,15,42,21.80
2015,08,06,15,43,21.90
2015,08,06,15,44,21.90
2015,08,06,15,45,21.90
2015,08,06,15,46,21.90
2015,08,06,15,47,21.90
2015,08,06,15,48,22.00
2015,08,06,15,49,22.10
2015,08,06,15,50,22.20
2015,08,06,15,51,22.30
2015,08,06,15,52,22.40
2015,08,06,15,53,22.40
2015,08,06,15,54,22.30
2015,08,06,15,55,22.30
2015,08,06,15,56,22.30
2015,08,06,15,57,22.10
2015,08,06,15,58,22.00
2015,08,06,15,59,22.00
2015,08,06,16,00,21.90
2015,08,06,16,01,21.80
2015,08,06,16,02,21.90
2015,08,06,16,03,22.00
2015,08,06,16,04,22.00
2015,08,06,16,05,22.00
2015,08,06,16,06,22.10
2015,08,06,16,07,22.20
2015,08,06,16,08,22.30
2015,08,06,16,09,22.40
2015,08,06,16,10,22.40
2015,08,06,16,11,22.40
2015,08,06,16,12,22.40
2015,08,06,16,13,22.50
2015,08,06,16,14,22.50
2015,08,06,16,15,22.50
2015,08,06,16,16,22.30
2015,08,06,16,17,22.30
2015,08,06,16,18,22.30
2015,08,06,16,19,22.40
2015,08,06,16,20,22.40
2015,08,06,16,21,22.40
2015,08,06,16,22,22.40
2015,08,06,16,23,22.30
2015,08,06,16,24,22.20
2015,08,06,16,25,22.10
2015,08,06,16,26,22.00
2015,08,06,16,27,22.00
2015,08,06,16,28,22.00
2015,08,06,16,29,22.00
2015,08,06,16,30,22.10
2015,08,06,16,31,22.00
2015,08,06,16,32,22.00
2015,08,06,16,33,22.00
2015,08,06,16,34,21.90
2015,08,06,16,35,22.00
2015,08,06,16,36,22.00
2015,08,06,16,37,22.00
2015,08,06,16,38,22.10
2015,08,06,16,39,22.00
2015,08,06,16,40,22.00
2015,08,06,16,41,22.00
2015,08,06,16,42,22.10
2015,08,06,16,43,22.20
2015,08,06,16,44,22.10
2015,08,06,16,45,22.20
2015,08,06,16,46,22.20
2015,08,06,16,47,22.20
2015,08,06,16,48,22.10
2015,08,06,16,49,22.10
2015,08,06,16,50,22.10
2015,08,06,16,51,22.10
2015,08,06,16,52,22.00
2015,08,06,16,53,22.00
2015,08,06,16,54,21.90
2015,08,06,16,55,21.90
2015,08,06,16,56,21.80
2015,08,06,16,57,21.80
2015,08,06,16,58,21.90
2015,08,06,16,59,21.80
2015,08,06,17,00,21.90
2015,08,06,17,01,21.90
2015,08,06,17,02,22.00
2015,08,06,17,03,21.90
2015,08,06,17,04,21.80
2015,08,06,17,05,21.80
2015,08,06,17,06,21.70
2015,08,06,17,07,21.80
2015,08,06,17,08,21.80
2015,08,06,17,09,21.80
2015,08,06,17,10,21.80
2015,08,06,17,11,21.80
2015,08,06,17,12,21.90
2015,08,06,17,13,21.90
2015,08,06,17,14,22.00
2015,08,06,17,15,22.00
2015,08,06,17,16,21.90
2015,08,06,17,17,21.80
2015,08,06,17,18,21.90
2015,08,06,17,19,21.90